sat.trackr.live / text

‹ back to catalog

STARLINK-34239

NORAD 64728 · 2025-144E

PAYLOAD ACTIVE UNKNOWN

§ Identity

Operator
Country
US
Launch date
2025-07-02
Launch site
AFETR
Launch vehicle
Mass (kg)
RCS (m²)

Purposes: comms

External: N2YO · Heavens-Above · Gunter

§ Orbital elements

Epoch: 2026-09-20T11:48:20.570400Z

Period
93.85 min
Inclination
53.1589°
Eccentricity
0.0000940
Mean motion
15.34360161 rev/d
Perigee alt
462.2 km
Apogee alt
463.5 km
Semi-major
6,841.0 km
B*
4.6717e-5
RAAN
353.6035°
Arg perigee
62.2665°
Mean anomaly
297.8433°
Rev number
6,957

§ Raw data

STARLINK-342391 64728U 25144E   26263.49190475  .00001201  00000+0  46717-4 0  99932 64728  53.1589 353.6035 0000940  62.2665 297.8433 15.34360161 69578

JSON: /api/v1/satellites/64728 · /tle

For live sub-satellite position, see the globe view (requires WebGL).

§ Visibility from observer

Set your observer location to see the next 7 days of passes ≥ 10°. The values pass through the URL so the page stays shareable.

No JS? Fill the form by hand. The geolocation button needs JavaScript.